SV1BYK-2 Weather Reports


Display with metric or nautical units.
time (UTC)temp
F
wind
direction
speed
MPH
gust
MPH
rain 1hr
in
rain 24hr
in
rain mn
in
humidity
%
barometer
mb
20260505175618 67 262 2.0 8.0 0.00 0.00 0.00 52 1009.1
20260505174504 67 258 4.0 7.0 0.00 0.00 0.00 52 1009.4
20260505173817 68 257 2.0 8.0 0.00 0.00 0.00 52 1009.3
20260505172703 68 265 2.0 4.0 0.00 0.00 0.00 51 1009.0
20260505171804 69 277 3.0 7.0 0.00 0.00 0.00 52 1009.2
20260505170904 69 276 4.0 6.0 0.00 0.00 0.00 50 1009.1
20260505170217 70 255 3.0 6.0 0.00 0.00 0.00 49 1009.2
20260505165403 72 256 1.0 6.0 0.00 0.00 0.00 44 1009.3
20260505164503 71 274 4.0 7.0 0.00 0.00 0.00 46 1009.1
20260505163813 72 266 4.0 8.0 0.00 0.00 0.00 46 1008.8
20260505162915 72 268 5.0 8.0 0.00 0.00 0.00 44 1009.1
20260505161804 73 259 5.0 8.0 0.00 0.00 0.00 41 1009.2
20260505161115 74 259 2.0 9.0 0.00 0.00 0.00 39 1009.1
20260505152703 76 237 2.0 4.0 0.00 0.00 0.00 32 1008.7
20260505151804 76 246 2.0 7.0 0.00 0.00 0.00 32 1008.9
20260505150904 74 239 2.0 9.0 0.00 0.00 0.00 34 1009.1
20260505140213 76 127 3.0 7.0 0.00 0.00 0.00 31 1009.1
20260505130214 76 98 8.0 14.0 0.00 0.00 0.00 30 1009.2
20260505124713 78 162 3.0 11.0 0.00 0.00 0.00 27 1009.5
20260505123603 76 104 5.0 11.0 0.00 0.00 0.00 28 1009.7
20260505122913 76 127 6.0 11.0 0.00 0.00 0.00 28 1009.8
20260505121804 77 117 4.0 9.0 0.00 0.00 0.00 27 1009.6
20260505120903 77 123 4.0 13.0 0.00 0.00 0.00 28 1009.8
20260505120215 78 104 3.0 13.0 0.00 0.00 0.00 27 1009.7
20260505115616 76 117 6.0 11.0 0.00 0.00 0.00 29 1009.8
20260505114503 77 143 5.0 13.0 0.00 0.00 0.00 29 1010.1
20260505113816 77 143 3.0 9.0 0.00 0.00 0.00 29 1010.0
20260505112913 77 182 3.0 11.0 0.00 0.00 0.00 31 1010.0
20260505112016 76 232 4.0 14.0 0.00 0.00 0.00 34 1010.0
20260505110904 75 255 11.0 18.0 0.00 0.00 0.00 35 1009.9
20260505101803 76 263 2.0 11.0 0.00 0.00 0.00 32 1010.2
20260505101114 76 277 3.0 9.0 0.00 0.00 0.00 32 1010.3
20260505100216 74 274 4.0 11.0 0.00 0.00 0.00 33 1010.4
20260505095403 76 286 3.0 11.0 0.00 0.00 0.00 33 1010.6
20260505094715 75 282 5.0 11.0 0.00 0.00 0.00 34 1010.4
20260505093603 74 282 5.0 13.0 0.00 0.00 0.00 37 1010.5
20260505092914 73 269 8.0 13.0 0.00 0.00 0.00 35 1010.6
20260505092017 73 263 3.0 11.0 0.00 0.00 0.00 39 1010.6
20260505091114 74 271 8.0 11.0 0.00 0.00 0.00 39 1010.6
20260505090004 73 286 9.0 13.0 0.00 0.00 0.00 40 1010.8
20260505085403 73 285 5.0 13.0 0.00 0.00 0.00 36 1010.8
20260505084715 75 97 0.0 7.0 0.00 0.00 0.00 36 1010.9
20260505083603 74 101 2.0 6.0 0.00 0.00 0.00 37 1010.8
20260505082703 73 112 2.0 6.0 0.00 0.00 0.00 37 1010.8
20260505082012 73 106 2.0 4.0 0.00 0.00 0.00 37 1011.0
20260505080904 73 206 2.0 6.0 0.00 0.00 0.00 37 1011.1
20260505080217 72 202 2.0 6.0 0.00 0.00 0.00 37 1011.2
20260505075403 72 241 1.0 6.0 0.00 0.00 0.00 37 1011.2
20260505074716 73 99 1.0 4.0 0.00 0.00 0.00 38 1011.2
20260505073813 71 122 2.0 4.0 0.00 0.00 0.00 38 1011.4
20260505072703 70 117 2.0 4.0 0.00 0.00 0.00 40 1011.3
20260505071803 71 228 1.0 4.0 0.00 0.00 0.00 41 1011.3
20260505070904 68 135 1.0 4.0 0.00 0.00 0.00 45 1011.2
20260505070218 69 219 2.0 2.0 0.00 0.00 0.00 44 1011.1
20260505065614 68 262 2.0 2.0 0.00 0.00 0.00 45 1011.3
20260505064717 66 270 0.0 2.0 0.00 0.00 0.00 47 1011.3
20260505063814 67 272 0.0 2.0 0.00 0.00 0.00 47 1011.3
20260505062916 66 275 1.0 2.0 0.00 0.00 0.00 48 1011.2
20260505061803 64 292 1.0 4.0 0.00 0.00 0.00 52 1010.9
20260505060904 62 284 0.0 4.0 0.00 0.00 0.00 54 1011.3
20260505060213 62 270 1.0 2.0 0.00 0.00 0.00 56 1011.1
20260505055403 63 270 0.0 2.0 0.00 0.00 0.00 55 1011.2
20260505054504 61 270 1.0 2.0 0.00 0.00 0.00 58 1011.2
20260505053815 60 270 0.0 2.0 0.00 0.00 0.00 59 1011.3
20260505052703 61 270 0.0 2.0 0.00 0.00 0.00 60 1011.2
20260505052014 59 270 0.0 2.0 0.00 0.00 0.00 62 1011.0
20260505050904 57 270 0.0 2.0 0.00 0.00 0.00 66 1011.1
20260505040904 52 270 0.0 2.0 0.00 0.00 0.00 71 1011.0
20260505040004 52 270 0.0 2.0 0.00 0.00 0.00 71 1010.9
20260505035616 52 270 0.0 2.0 0.00 0.00 0.00 71 1010.9
20260505034503 52 280 0.0 2.0 0.00 0.00 0.00 71 1011.0
20260505033816 52 292 0.0 2.0 0.00 0.00 0.00 71 1011.0
20260505032703 52 292 0.0 2.0 0.00 0.00 0.00 71 1011.0
20260505032016 52 292 0.0 2.0 0.00 0.00 0.00 70 1010.8
20260505030904 52 292 1.0 2.0 0.00 0.00 0.00 69 1010.8
20260505030215 52 292 0.0 2.0 0.00 0.00 0.00 69 1010.9
20260505025617 52 292 0.0 2.0 0.00 0.00 0.00 68 1010.8
20260505024714 52 292 1.0 2.0 0.00 0.00 0.00 69 1010.9
20260505023603 52 292 0.0 2.0 0.00 0.00 0.00 69 1010.8
20260505022914 52 0 0.0 0.0 0.00 0.00 0.00 69 1010.8
20260505021804 52 292 0.0 2.0 0.00 0.00 0.00 69 1010.9
20260505021114 52 292 0.0 2.0 0.00 0.00 0.00 69 1011.0
20260505020004 52 292 0.0 2.0 0.00 0.00 0.00 70 1010.8
20260505015403 52 292 0.0 2.0 0.00 0.00 0.00 70 1011.0
20260505014503 52 292 0.0 2.0 0.00 0.00 0.00 70 1011.1
20260505013603 53 292 0.0 2.0 0.00 0.00 0.00 70 1010.8
20260505012703 53 292 1.0 2.0 0.00 0.00 0.00 70 1011.0
20260505011804 53 292 0.0 2.0 0.00 0.00 0.00 70 1011.3
20260505011114 53 292 0.0 2.0 0.00 0.00 0.00 70 1011.2
20260505010004 53 292 0.0 2.0 0.00 0.00 0.00 69 1011.3
20260505005613 53 292 0.0 2.0 0.00 0.00 0.00 69 1011.3
20260505004503 53 292 0.0 2.0 0.00 0.00 0.00 69 1011.4
20260505003603 53 292 0.0 2.0 0.00 0.00 0.00 69 1011.3
20260505002915 53 292 0.0 2.0 0.00 0.00 0.00 68 1011.3
20260505002018 53 292 0.0 2.0 0.00 0.00 0.00 68 1011.5
20260505000904 54 292 0.0 2.0 0.00 0.00 0.00 66 1011.5
20260505000004 53 292 0.0 2.0 0.00 0.00 0.00 66 1011.5
20260504235403 54 292 0.0 2.0 0.00 0.00 0.00 66 1011.7
20260504234716 54 292 1.0 2.0 0.00 0.00 0.00 66 1011.5
20260504233813 54 292 0.0 2.0 0.00 0.00 0.00 66 1011.6
20260504232703 54 292 0.0 2.0 0.00 0.00 0.00 67 1011.8
20260504232013 54 292 0.0 2.0 0.00 0.00 0.00 67 1011.7
20260504231115 54 0 0.0 0.0 0.00 0.00 0.00 66 1011.9
20260504230218 54 292 0.0 2.0 0.00 0.00 0.00 66 1012.1
20260504225403 55 292 0.0 2.0 0.00 0.00 0.00 65 1012.1
20260504224503 55 292 0.0 2.0 0.00 0.00 0.00 66 1012.0
20260504223603 55 0 0.0 0.0 0.00 0.00 0.00 66 1012.2
20260504222703 55 292 0.0 2.0 0.00 0.00 0.00 66 1012.0
20260504221803 55 292 0.0 2.0 0.00 0.00 0.00 66 1012.5
20260504221116 55 292 0.0 2.0 0.00 0.00 0.00 67 1012.3
20260504220213 56 292 0.0 2.0 0.00 0.00 0.00 70 1012.3
20260504215403 57 292 0.0 2.0 0.00 0.00 0.00 70 1012.4
20260504214503 57 0 0.0 0.0 0.00 0.00 0.00 69 1012.3
20260504213603 58 292 0.0 2.0 0.00 0.00 0.00 68 1012.5
20260504212703 58 292 2.0 2.0 0.00 0.00 0.00 68 1012.3
20260504212014 58 292 1.0 2.0 0.00 0.00 0.00 67 1012.2
20260504211117 58 292 2.0 2.0 0.00 0.00 0.00 67 1012.2
20260504210219 58 281 1.0 4.0 0.00 0.00 0.00 67 1012.3
20260504205403 59 272 2.0 4.0 0.00 0.00 0.00 67 1012.4
20260504204503 58 270 0.0 2.0 0.00 0.00 0.00 67 1012.4
20260504203815 58 270 0.0 4.0 0.00 0.00 0.00 67 1012.4
20260504202703 59 265 1.0 4.0 0.00 0.00 0.00 66 1012.4
20260504201804 59 261 0.0 4.0 0.00 0.00 0.00 66 1012.5
20260504201117 59 264 1.0 4.0 0.00 0.00 0.00 66 1012.4
20260504200004 59 247 1.0 4.0 0.00 0.00 0.00 65 1012.5
20260504195403 59 242 2.0 4.0 0.00 0.00 0.00 64 1012.7
20260504194714 59 246 1.0 6.0 0.00 0.00 0.00 64 1012.5
20260504193816 59 243 1.0 4.0 0.00 0.00 0.00 63 1012.5
20260504192703 59 238 2.0 4.0 0.00 0.00 0.00 62 1012.5
20260504191804 59 247 1.0 4.0 0.00 0.00 0.00 62 1012.3
20260504191113 59 227 2.0 4.0 0.00 0.00 0.00 61 1012.5
20260504190004 60 238 2.0 4.0 0.00 0.00 0.00 60 1012.3
20260504185617 60 222 1.0 6.0 0.00 0.00 0.00 60 1012.1
20260504184503 60 217 2.0 4.0 0.00 0.00 0.00 60 1012.2
20260504183817 60 157 2.0 4.0 0.00 0.00 0.00 59 1012.1
20260504182914 60 187 2.0 4.0 0.00 0.00 0.00 58 1012.2
20260504182016 60 231 1.0 7.0 0.00 0.00 0.00 59 1012.1
20260504181114 60 266 2.0 4.0 0.00 0.00 0.00 58 1011.9
20260504180216 60 267 2.0 4.0 0.00 0.00 0.00 58 1011.8